This is the latest recevied weather packets stored in our database for station/object KE0TNI-13. If no packets are shown the sender has not sent any weather packets the latest 10 day(s).
| Time | Temp. | Humidity | Pressure | Rain* | Wind** | Luminosity | Snow |
|---|---|---|---|---|---|---|---|
| 1777860146 | 9.44° C | 40% | 1018.7 hPa | 0 mm | - | 1 W/m² | - |
| 1777859842 | 9.44° C | 40% | 1018.7 hPa | 0 mm | - | 2 W/m² | - |
| 1777859538 | 10° C | 36% | 1018.7 hPa | 0 mm | - | 3 W/m² | - |
| 1777859234 | 10.56° C | 35% | 1018.4 hPa | 0 mm | - | 6 W/m² | - |
| 1777858931 | 10.56° C | 34% | 1018.5 hPa | 0 mm | - | 9 W/m² | - |
| 1777858629 | 10.56° C | 33% | 1018.5 hPa | 0 mm | - | 12 W/m² | - |
| 1777858326 | 11.11° C | 33% | 1018.3 hPa | 0 mm | - | 16 W/m² | - |
| 1777858023 | 11.11° C | 32% | 1018.2 hPa | 0 mm | - | 22 W/m² | - |
| 1777857721 | 11.11° C | 32% | 1018.5 hPa | 0 mm | - | 29 W/m² | - |
| 1777857418 | 11.67° C | 31% | 1018 hPa | 0 mm | - | 33 W/m² | - |
| 1777857114 | 11.67° C | 30% | 1018.3 hPa | 0 mm | - | 34 W/m² | - |
| 1777856810 | 12.22° C | 30% | 1018.3 hPa | 0 mm | - | 40 W/m² | - |
| 1777856505 | 12.22° C | 29% | 1018.3 hPa | 0 mm | - | 43 W/m² | - |
| 1777856203 | 12.22° C | 29% | 1018.3 hPa | 0 mm | - | 46 W/m² | - |
| 1777855899 | 12.78° C | 29% | 1018.2 hPa | 0 mm | - | 41 W/m² | - |
| 1777855598 | 12.78° C | 27% | 1018.4 hPa | 0 mm | - | 59 W/m² | - |
| 1777855294 | 12.78° C | 26% | 1018.3 hPa | 0 mm | - | 61 W/m² | - |
| 1777854991 | 12.78° C | 26% | 1018 hPa | 0 mm | - | 64 W/m² | - |
| 1777854687 | 12.78° C | 27% | 1018.3 hPa | 0 mm | - | 96 W/m² | - |
| 1777854384 | 12.78° C | 27% | 1018.4 hPa | 0 mm | - | 106 W/m² | - |
| 1777854082 | 12.78° C | 26% | 1018.4 hPa | 0 mm | - | 121 W/m² | - |
| 1777853780 | 12.22° C | 27% | 1018.3 hPa | 0 mm | - | 82 W/m² | - |
| 1777853475 | 12.22° C | 27% | 1018.3 hPa | 0 mm | - | 85 W/m² | - |
| 1777853173 | 12.22° C | 26% | 1018.3 hPa | 0 mm | - | 49 W/m² | - |
| 1777852870 | 12.78° C | 24% | 1018.2 hPa | 0 mm | - | 48 W/m² | - |
* Rain latest hour (hover to see other rain measurements)
** Current wind speed in m/s (hover to see current wind gust speed)